Time,TemperatureF,DewpointF,PressureIn,WindDirection,WindDirectionDegrees,WindSpeedMPH,WindSpeedGustMPH,Humidity,HourlyPrecipIn,Conditions,Clouds,dailyrainin,SoftwareType,DateUTC
2013-05-30 00:01:00,66.6,65.4,30.06,West,273,0.0,0.0,96,0.00,,---,0.01,VWS V14.01,2013-05-30 04:01:00,
2013-05-30 00:06:00,66.4,65.2,30.07,West,273,0.0,0.0,96,0.00,,---,0.00,VWS V14.01,2013-05-30 04:06:00,
2013-05-30 00:11:00,66.4,65.2,30.07,West,273,0.0,0.0,96,0.00,,---,0.00,VWS V14.01,2013-05-30 04:11:00,
2013-05-30 00:16:00,66.3,65.4,30.07,West,273,0.0,0.0,97,0.00,,---,0.00,VWS V14.01,2013-05-30 04:16:00,
2013-05-30 00:21:00,66.2,65.3,30.07,West,274,0.0,0.0,97,0.00,,---,0.00,VWS V14.01,2013-05-30 04:21:00,
2013-05-30 00:26:00,66.0,64.8,30.07,West,273,0.0,0.0,96,0.00,,---,0.00,VWS V14.01,2013-05-30 04:26:00,
2013-05-30 00:31:00,66.0,65.1,30.07,West,273,0.0,0.0,97,0.00,,---,0.00,VWS V14.01,2013-05-30 04:31:00,
2013-05-30 00:36:00,66.0,65.1,30.07,West,273,0.0,0.0,97,0.00,,---,0.00,VWS V14.01,2013-05-30 04:36:00,
2013-05-30 00:41:00,66.0,65.1,30.07,West,273,0.0,0.0,97,0.00,,---,0.00,VWS V14.01,2013-05-30 04:41:00,
2013-05-30 00:46:00,66.0,65.1,30.07,West,273,0.0,0.0,97,0.00,,---,0.00,VWS V14.01,2013-05-30 04:46:00,
2013-05-30 00:51:00,65.9,65.0,30.07,West,273,0.0,0.0,97,0.00,,---,0.00,VWS V14.01,2013-05-30 04:51:00,
2013-05-30 00:56:00,65.8,64.9,30.07,West,273,0.0,0.0,97,0.00,,---,0.00,VWS V14.01,2013-05-30 04:56:00,
2013-05-30 01:01:00,65.7,64.8,30.07,West,273,0.0,0.0,97,0.00,,---,0.00,VWS V14.01,2013-05-30 05:01:00,
2013-05-30 01:06:00,65.6,64.7,30.07,West,273,0.0,0.0,97,0.00,,---,0.00,VWS V14.01,2013-05-30 05:06:00,
2013-05-30 01:11:00,65.6,64.7,30.08,West,273,0.0,0.0,97,0.00,,---,0.00,VWS V14.01,2013-05-30 05:11:00,
2013-05-30 01:16:00,65.5,64.6,30.08,West,273,0.0,0.0,97,0.00,,---,0.00,VWS V14.01,2013-05-30 05:16:00,
2013-05-30 01:21:00,65.5,64.6,30.08,West,273,0.0,0.0,97,0.00,,---,0.00,VWS V14.01,2013-05-30 05:21:00,
2013-05-30 01:26:00,65.4,64.5,30.08,West,273,0.0,0.0,97,0.00,,---,0.00,VWS V14.01,2013-05-30 05:26:00,
2013-05-30 01:31:00,65.3,64.4,30.08,West,273,0.0,0.0,97,0.00,,---,0.00,VWS V14.01,2013-05-30 05:31:00,
2013-05-30 01:36:00,65.3,64.4,30.08,West,274,0.0,0.0,97,0.00,,---,0.00,VWS V14.01,2013-05-30 05:36:00,
2013-05-30 01:41:00,65.2,64.3,30.08,West,273,0.0,0.0,97,0.00,,---,0.00,VWS V14.01,2013-05-30 05:41:00,
2013-05-30 01:46:00,65.2,64.3,30.08,West,273,0.0,0.0,97,0.00,,---,0.00,VWS V14.01,2013-05-30 05:46:00,
2013-05-30 01:51:00,65.1,64.2,30.08,West,273,0.0,0.0,97,0.00,,---,0.00,VWS V14.01,2013-05-30 05:51:00,
2013-05-30 01:56:00,65.0,64.1,30.08,West,273,0.0,0.0,97,0.00,,---,0.00,VWS V14.01,2013-05-30 05:56:00,
2013-05-30 02:01:00,65.0,64.1,30.08,West,273,0.0,0.0,97,0.00,,---,0.00,VWS V14.01,2013-05-30 06:01:00,
2013-05-30 02:06:00,64.9,64.0,30.08,West,273,0.0,0.0,97,0.00,,---,0.00,VWS V14.01,2013-05-30 06:06:00,
2013-05-30 02:11:00,65.0,64.4,30.08,West,273,0.0,0.0,98,0.00,,---,0.00,VWS V14.01,2013-05-30 06:11:00,
2013-05-30 02:16:00,64.9,64.0,30.08,West,274,0.0,0.0,97,0.00,,---,0.00,VWS V14.01,2013-05-30 06:16:00,
2013-05-30 02:21:00,64.9,64.0,30.08,West,273,0.0,0.0,97,0.00,,---,0.00,VWS V14.01,2013-05-30 06:21:00,
2013-05-30 02:26:00,64.7,64.1,30.08,West,273,0.0,0.0,98,0.00,,---,0.00,VWS V14.01,2013-05-30 06:26:00,
2013-05-30 02:31:00,64.7,64.1,30.08,West,274,0.0,0.0,98,0.00,,---,0.00,VWS V14.01,2013-05-30 06:31:00,
2013-05-30 02:36:00,64.8,64.2,30.08,West,273,0.0,0.0,98,0.00,,---,0.00,VWS V14.01,2013-05-30 06:36:00,
2013-05-30 02:41:00,64.7,64.1,30.08,West,273,0.0,0.0,98,0.00,,---,0.00,VWS V14.01,2013-05-30 06:41:00,
2013-05-30 02:46:00,64.7,64.1,30.08,West,274,0.0,0.0,98,0.00,,---,0.00,VWS V14.01,2013-05-30 06:46:00,
2013-05-30 02:51:00,64.7,64.1,30.08,West,273,0.0,0.0,98,0.00,,---,0.00,VWS V14.01,2013-05-30 06:51:00,
2013-05-30 02:56:00,64.7,64.1,30.08,West,273,0.0,0.0,98,0.00,,---,0.00,VWS V14.01,2013-05-30 06:56:00,
2013-05-30 03:01:00,64.6,64.0,30.08,West,273,0.0,0.0,98,0.00,,---,0.00,VWS V14.01,2013-05-30 07:01:00,
2013-05-30 03:06:00,64.6,64.0,30.08,West,273,0.0,0.0,98,0.00,,---,0.00,VWS V14.01,2013-05-30 07:06:00,
2013-05-30 03:11:00,64.5,63.9,30.08,West,273,0.0,0.0,98,0.00,,---,0.00,VWS V14.01,2013-05-30 07:11:00,
2013-05-30 03:16:00,64.5,63.9,30.08,West,273,0.0,0.0,98,0.00,,---,0.00,VWS V14.01,2013-05-30 07:16:00,
2013-05-30 03:21:00,64.5,63.9,30.08,West,273,0.0,0.0,98,0.00,,---,0.00,VWS V14.01,2013-05-30 07:21:00,
2013-05-30 03:26:00,64.6,64.0,30.08,West,273,0.0,0.0,98,0.00,,---,0.00,VWS V14.01,2013-05-30 07:26:00,
2013-05-30 03:31:00,64.5,63.9,30.08,West,273,0.0,0.0,98,0.00,,---,0.00,VWS V14.01,2013-05-30 07:31:00,
2013-05-30 03:36:00,64.4,63.8,30.08,West,273,0.0,0.0,98,0.00,,---,0.00,VWS V14.01,2013-05-30 07:36:00,
2013-05-30 03:41:00,64.3,63.7,30.08,West,274,0.0,0.0,98,0.00,,---,0.00,VWS V14.01,2013-05-30 07:41:00,
2013-05-30 03:46:00,64.2,63.6,30.08,West,274,0.0,0.0,98,0.00,,---,0.00,VWS V14.01,2013-05-30 07:46:00,
2013-05-30 03:51:00,64.1,63.5,30.08,West,273,0.0,0.0,98,0.00,,---,0.00,VWS V14.01,2013-05-30 07:51:00,
2013-05-30 03:56:00,64.1,63.5,30.08,West,273,0.0,0.0,98,0.00,,---,0.00,VWS V14.01,2013-05-30 07:56:00,
2013-05-30 04:01:00,64.0,63.4,30.08,West,273,0.0,0.0,98,0.00,,---,0.00,VWS V14.01,2013-05-30 08:01:00,
2013-05-30 04:06:00,63.8,63.2,30.08,West,273,0.0,0.0,98,0.00,,---,0.00,VWS V14.01,2013-05-30 08:06:00,
2013-05-30 04:11:00,63.8,63.2,30.08,West,273,0.0,0.0,98,0.00,,---,0.00,VWS V14.01,2013-05-30 08:11:00,
2013-05-30 04:15:00,63.9,63.3,30.08,West,273,0.0,0.0,98,0.00,,---,0.00,VWS V14.01,2013-05-30 08:15:00,
2013-05-30 04:20:00,63.9,63.3,30.08,West,273,0.0,0.0,98,0.00,,---,0.00,VWS V14.01,2013-05-30 08:20:00,
2013-05-30 04:25:00,63.8,63.2,30.08,West,273,0.0,0.0,98,0.00,,---,0.00,VWS V14.01,2013-05-30 08:25:00,
2013-05-30 04:30:00,63.7,63.1,30.08,West,273,0.0,0.0,98,0.00,,---,0.00,VWS V14.01,2013-05-30 08:30:00,
2013-05-30 04:35:00,63.6,63.0,30.08,West,273,0.0,0.0,98,0.00,,---,0.00,VWS V14.01,2013-05-30 08:35:00,
2013-05-30 04:40:00,63.5,62.9,30.08,West,273,0.0,0.0,98,0.00,,---,0.00,VWS V14.01,2013-05-30 08:40:00,
2013-05-30 04:45:00,63.5,62.9,30.08,West,273,0.0,0.0,98,0.00,,---,0.00,VWS V14.01,2013-05-30 08:45:00,
2013-05-30 04:50:00,63.7,63.1,30.08,West,271,0.0,0.0,98,0.00,,---,0.00,VWS V14.01,2013-05-30 08:50:00,
2013-05-30 04:55:00,63.7,63.1,30.08,West,271,0.0,0.0,98,0.00,,---,0.00,VWS V14.01,2013-05-30 08:55:00,
2013-05-30 05:00:00,63.9,63.6,30.08,West,271,0.0,0.0,99,0.00,,---,0.00,VWS V14.01,2013-05-30 09:00:00,
2013-05-30 05:05:00,64.1,63.8,30.08,WSW,258,0.0,0.0,99,0.00,,---,0.00,VWS V14.01,2013-05-30 09:05:00,
2013-05-30 05:10:00,64.1,63.8,30.09,WSW,258,0.0,0.0,99,0.00,,---,0.00,VWS V14.01,2013-05-30 09:10:00,
2013-05-30 05:15:00,64.2,63.9,30.09,SW,215,0.0,0.0,99,0.00,,---,0.00,VWS V14.01,2013-05-30 09:15:00,
2013-05-30 05:20:00,64.2,63.6,30.09,SW,215,0.0,0.0,98,0.00,,---,0.00,VWS V14.01,2013-05-30 09:20:00,
2013-05-30 05:25:00,64.0,63.4,30.09,SW,215,0.0,0.0,98,0.00,,---,0.00,VWS V14.01,2013-05-30 09:25:00,
2013-05-30 05:30:00,63.7,63.1,30.09,SW,217,0.0,0.0,98,0.00,,---,0.00,VWS V14.01,2013-05-30 09:30:00,
2013-05-30 05:35:00,63.6,63.0,30.10,SW,217,0.0,0.0,98,0.00,,---,0.00,VWS V14.01,2013-05-30 09:35:00,
2013-05-30 05:40:00,63.5,62.9,30.10,SW,215,0.0,0.0,98,0.00,,---,0.00,VWS V14.01,2013-05-30 09:40:00,
2013-05-30 05:45:00,63.5,62.9,30.10,SW,215,0.0,0.0,98,0.00,,---,0.00,VWS V14.01,2013-05-30 09:45:00,
2013-05-30 05:50:00,63.5,62.9,30.10,SW,217,0.0,0.0,98,0.00,,---,0.00,VWS V14.01,2013-05-30 09:50:00,
2013-05-30 05:55:00,63.5,62.9,30.10,SW,217,0.0,0.0,98,0.00,,---,0.00,VWS V14.01,2013-05-30 09:55:00,
2013-05-30 06:00:00,63.4,62.8,30.10,SW,217,0.0,0.0,98,0.00,,---,0.00,VWS V14.01,2013-05-30 10:00:00,
2013-05-30 06:05:00,63.4,62.8,30.10,SW,217,0.0,0.0,98,0.00,,---,0.00,VWS V14.01,2013-05-30 10:05:00,
2013-05-30 06:10:00,63.5,62.9,30.11,SW,215,0.0,0.0,98,0.00,,---,0.00,VWS V14.01,2013-05-30 10:10:00,
2013-05-30 06:15:00,63.7,63.4,30.11,SW,217,0.0,0.0,99,0.00,,---,0.00,VWS V14.01,2013-05-30 10:15:00,
2013-05-30 06:20:00,63.8,63.5,30.11,SW,217,0.0,0.0,99,0.00,,---,0.00,VWS V14.01,2013-05-30 10:20:00,
2013-05-30 06:25:00,64.1,63.8,30.11,SW,215,0.0,0.0,99,0.00,,---,0.00,VWS V14.01,2013-05-30 10:25:00,
2013-05-30 06:30:00,64.3,64.0,30.11,SW,215,0.0,0.0,99,0.00,,---,0.00,VWS V14.01,2013-05-30 10:30:00,
2013-05-30 06:35:00,64.7,64.4,30.11,SW,217,0.0,0.0,99,0.00,,---,0.00,VWS V14.01,2013-05-30 10:35:00,
2013-05-30 06:40:00,64.8,64.5,30.11,SW,217,0.0,0.0,99,0.00,,---,0.00,VWS V14.01,2013-05-30 10:40:00,
2013-05-30 06:45:00,65.1,64.8,30.11,SW,217,0.0,0.0,99,0.00,,---,0.00,VWS V14.01,2013-05-30 10:45:00,
2013-05-30 06:50:00,65.4,65.1,30.11,SW,233,0.0,0.0,99,0.00,,---,0.00,VWS V14.01,2013-05-30 10:50:00,
2013-05-30 06:55:00,66.0,65.7,30.11,West,270,0.0,0.0,99,0.00,,---,0.00,VWS V14.01,2013-05-30 10:55:00,
2013-05-30 07:00:00,66.8,66.5,30.11,West,271,1.0,3.0,99,0.00,,---,0.00,VWS V14.01,2013-05-30 11:00:00,
2013-05-30 07:05:00,67.4,67.1,30.11,West,266,2.0,2.0,99,0.00,,---,0.00,VWS V14.01,2013-05-30 11:05:00,
2013-05-30 07:10:00,68.3,67.1,30.11,West,263,1.0,3.0,96,0.00,,---,0.00,VWS V14.01,2013-05-30 11:10:00,
2013-05-30 07:15:00,68.9,67.1,30.12,West,276,2.0,3.0,94,0.00,,---,0.00,VWS V14.01,2013-05-30 11:15:00,
2013-05-30 07:20:00,69.5,67.1,30.12,WNW,284,2.0,4.0,92,0.00,,---,0.00,VWS V14.01,2013-05-30 11:20:00,
2013-05-30 07:25:00,69.7,67.0,30.12,West,274,3.0,5.0,91,0.00,,---,0.00,VWS V14.01,2013-05-30 11:25:00,
2013-05-30 07:30:00,70.0,67.3,30.12,WSW,258,1.0,5.0,91,0.00,,---,0.00,VWS V14.01,2013-05-30 11:30:00,
2013-05-30 07:35:00,70.3,67.2,30.12,West,271,2.0,5.0,90,0.00,,---,0.00,VWS V14.01,2013-05-30 11:35:00,
2013-05-30 07:40:00,70.5,67.4,30.12,West,264,2.0,5.0,90,0.00,,---,0.00,VWS V14.01,2013-05-30 11:40:00,
2013-05-30 07:45:00,70.8,67.4,30.12,West,273,2.0,5.0,89,0.00,,---,0.00,VWS V14.01,2013-05-30 11:45:00,
2013-05-30 07:50:00,71.1,67.7,30.12,West,276,2.0,5.0,89,0.00,,---,0.00,VWS V14.01,2013-05-30 11:50:00,
2013-05-30 07:55:00,71.6,67.5,30.12,WSW,258,2.0,5.0,87,0.00,,---,0.00,VWS V14.01,2013-05-30 11:55:00,
2013-05-30 08:00:00,72.0,67.6,30.12,West,277,2.0,5.0,86,0.00,,---,0.00,VWS V14.01,2013-05-30 12:00:00,
2013-05-30 08:05:00,72.4,68.0,30.12,WSW,256,1.0,4.0,86,0.00,,---,0.00,VWS V14.01,2013-05-30 12:05:00,
2013-05-30 08:10:00,72.7,67.9,30.12,West,273,2.0,4.0,85,0.00,,---,0.00,VWS V14.01,2013-05-30 12:10:00,
2013-05-30 08:15:00,73.0,68.2,30.13,West,267,2.0,4.0,85,0.00,,---,0.00,VWS V14.01,2013-05-30 12:15:00,
2013-05-30 08:20:00,73.3,68.2,30.13,West,271,3.0,4.0,84,0.00,,---,0.00,VWS V14.01,2013-05-30 12:20:00,
2013-05-30 08:25:00,73.7,68.2,30.13,West,271,2.0,4.0,83,0.00,,---,0.00,VWS V14.01,2013-05-30 12:25:00,
2013-05-30 08:30:00,74.1,68.3,30.13,West,265,2.0,4.0,82,0.00,,---,0.00,VWS V14.01,2013-05-30 12:30:00,
2013-05-30 08:35:00,74.5,68.7,30.13,WSW,253,0.0,2.0,82,0.00,,---,0.00,VWS V14.01,2013-05-30 12:35:00,
2013-05-30 08:40:00,74.9,68.7,30.13,West,267,0.0,3.0,81,0.00,,---,0.00,VWS V14.01,2013-05-30 12:40:00,
2013-05-30 08:45:00,75.3,68.7,30.13,West,274,1.0,3.0,80,0.00,,---,0.00,VWS V14.01,2013-05-30 12:45:00,
2013-05-30 08:50:00,75.7,69.1,30.13,SW,218,0.0,3.0,80,0.00,,---,0.00,VWS V14.01,2013-05-30 12:50:00,
2013-05-30 08:55:00,76.1,68.8,30.13,West,262,0.0,3.0,78,0.00,,---,0.00,VWS V14.01,2013-05-30 12:55:00,
2013-05-30 09:00:00,76.7,69.3,30.13,West,271,0.0,3.0,78,0.00,,---,0.00,VWS V14.01,2013-05-30 13:00:00,
2013-05-30 09:05:00,77.2,69.4,30.13,South,184,0.0,0.0,77,0.00,,---,0.00,VWS V14.01,2013-05-30 13:05:00,
2013-05-30 09:10:00,77.5,69.3,30.13,WNW,298,0.0,1.0,76,0.00,,---,0.00,VWS V14.01,2013-05-30 13:10:00,
2013-05-30 09:15:00,77.9,68.9,30.13,SSW,205,0.0,2.0,74,0.00,,---,0.00,VWS V14.01,2013-05-30 13:15:00,
2013-05-30 09:20:00,78.2,68.4,30.13,SW,214,0.0,3.0,72,0.00,,---,0.00,VWS V14.01,2013-05-30 13:20:00,
2013-05-30 09:25:00,78.6,68.8,30.13,West,280,1.0,3.0,72,0.00,,---,0.00,VWS V14.01,2013-05-30 13:25:00,
2013-05-30 09:30:00,79.0,68.8,30.13,SE,132,0.0,3.0,71,0.00,,---,0.00,VWS V14.01,2013-05-30 13:30:00,
2013-05-30 09:35:00,79.5,69.3,30.13,SSE,153,0.0,0.0,71,0.00,,---,0.00,VWS V14.01,2013-05-30 13:35:00,
2013-05-30 09:40:00,79.9,69.7,30.12,SSE,153,0.0,0.0,71,0.00,,---,0.00,VWS V14.01,2013-05-30 13:40:00,
2013-05-30 09:45:00,80.4,69.3,30.12,West,274,0.0,0.0,69,0.00,,---,0.00,VWS V14.01,2013-05-30 13:45:00,
2013-05-30 09:50:00,80.9,68.9,30.12,SE,136,0.0,0.0,67,0.00,,---,0.00,VWS V14.01,2013-05-30 13:50:00,
2013-05-30 09:55:00,81.4,69.0,30.12,West,269,3.0,3.0,65,0.00,,,0.00,weatherlink.com 1.10,2013-05-30 13:55:00,
2013-05-30 10:00:00,81.7,66.9,30.12,West,264,1.0,5.0,61,0.00,,---,0.00,VWS V14.01,2013-05-30 14:00:00,
2013-05-30 10:05:00,82.1,67.3,30.12,West,274,0.0,3.0,61,0.00,,---,0.00,VWS V14.01,2013-05-30 14:05:00,
2013-05-30 10:10:00,82.4,68.1,30.12,West,276,0.0,3.0,62,0.00,,---,0.00,VWS V14.01,2013-05-30 14:10:00,
2013-05-30 10:15:00,82.6,66.3,30.12,West,263,2.0,5.0,58,0.00,,---,0.00,VWS V14.01,2013-05-30 14:15:00,
2013-05-30 10:20:00,82.7,66.4,30.12,NW,313,1.0,6.0,58,0.00,,---,0.00,VWS V14.01,2013-05-30 14:20:00,
2013-05-30 10:25:00,83.0,66.2,30.12,West,271,3.0,6.0,57,0.00,,---,0.00,VWS V14.01,2013-05-30 14:25:00,
2013-05-30 10:30:00,83.2,66.9,30.11,WNW,290,0.0,6.0,58,0.00,,---,0.00,VWS V14.01,2013-05-30 14:30:00,
2013-05-30 10:35:00,84.0,68.1,30.11,WSW,253,0.0,2.0,59,0.00,,---,0.00,VWS V14.01,2013-05-30 14:35:00,
2013-05-30 10:40:00,84.2,66.3,30.12,West,281,1.0,4.0,55,0.00,,---,0.00,VWS V14.01,2013-05-30 14:40:00,
2013-05-30 10:45:00,84.7,67.3,30.12,WNW,283,1.0,4.0,56,0.00,,---,0.00,VWS V14.01,2013-05-30 14:45:00,
2013-05-30 10:50:00,85.1,67.1,30.12,NW,322,0.0,4.0,55,0.00,,---,0.00,VWS V14.01,2013-05-30 14:50:00,
2013-05-30 10:55:00,85.2,66.7,30.11,NNE,12,0.0,4.0,54,0.00,,---,0.00,VWS V14.01,2013-05-30 14:55:00,
2013-05-30 11:00:00,85.4,65.8,30.12,WSW,258,2.0,4.0,52,0.00,,---,0.00,VWS V14.01,2013-05-30 15:00:00,
2013-05-30 11:05:00,85.9,67.3,30.12,South,181,2.0,4.0,54,0.00,,---,0.00,VWS V14.01,2013-05-30 15:05:00,
2013-05-30 11:10:00,86.2,68.2,30.12,SE,141,0.0,4.0,55,0.00,,---,0.00,VWS V14.01,2013-05-30 15:10:00,
2013-05-30 11:15:00,86.4,65.6,30.12,NW,313,1.0,4.0,50,0.00,,---,0.00,VWS V14.01,2013-05-30 15:15:00,
2013-05-30 11:20:00,86.2,66.0,30.12,NNE,23,1.0,4.0,51,0.00,,---,0.00,VWS V14.01,2013-05-30 15:20:00,
2013-05-30 11:25:00,86.2,65.4,30.12,West,266,1.0,5.0,50,0.00,,---,0.00,VWS V14.01,2013-05-30 15:25:00,
2013-05-30 11:30:00,86.5,65.7,30.12,WNW,286,2.0,6.0,50,0.00,,---,0.00,VWS V14.01,2013-05-30 15:30:00,
2013-05-30 11:35:00,87.0,66.1,30.12,East,101,1.0,4.0,50,0.00,,---,0.00,VWS V14.01,2013-05-30 15:35:00,
2013-05-30 11:40:00,87.0,66.1,30.12,NW,314,3.0,4.0,50,0.00,,---,0.00,VWS V14.01,2013-05-30 15:40:00,
2013-05-30 11:45:00,87.3,66.4,30.12,SSE,167,0.0,4.0,50,0.00,,---,0.00,VWS V14.01,2013-05-30 15:45:00,
2013-05-30 11:50:00,88.3,67.3,30.12,NNW,335,1.0,4.0,50,0.00,,---,0.00,VWS V14.01,2013-05-30 15:50:00,
2013-05-30 11:55:00,88.2,64.8,30.12,West,269,1.0,7.0,46,0.00,,---,0.00,VWS V14.01,2013-05-30 15:55:00,
2013-05-30 12:00:00,87.9,65.2,30.12,WNW,286,3.0,7.0,47,0.00,,---,0.00,VWS V14.01,2013-05-30 16:00:00,
2013-05-30 12:05:00,88.0,64.7,30.12,West,278,4.0,6.0,46,0.00,,---,0.00,VWS V14.01,2013-05-30 16:05:00,
2013-05-30 12:10:00,88.1,64.7,30.12,SSE,148,0.0,6.0,46,0.00,,---,0.00,VWS V14.01,2013-05-30 16:10:00,
2013-05-30 12:15:00,88.5,65.7,30.12,NNW,333,0.0,6.0,47,0.00,,---,0.00,VWS V14.01,2013-05-30 16:15:00,
2013-05-30 12:20:00,88.6,65.8,30.12,West,269,3.0,6.0,47,0.00,,---,0.00,VWS V14.01,2013-05-30 16:20:00,
2013-05-30 12:25:00,88.6,64.6,30.12,NW,323,2.0,6.0,45,0.00,,---,0.00,VWS V14.01,2013-05-30 16:25:00,
2013-05-30 12:30:00,88.9,64.8,30.12,WNW,303,3.0,6.0,45,0.00,,---,0.00,VWS V14.01,2013-05-30 16:30:00,
2013-05-30 12:35:00,88.7,62.7,30.12,WNW,284,3.0,5.0,42,0.00,,---,0.00,VWS V14.01,2013-05-30 16:35:00,
2013-05-30 12:40:00,88.3,63.7,30.12,WNW,295,3.0,5.0,44,0.00,,---,0.00,VWS V14.01,2013-05-30 16:40:00,
2013-05-30 12:45:00,88.3,64.3,30.12,West,269,0.0,5.0,45,0.00,,---,0.00,VWS V14.01,2013-05-30 16:45:00,
2013-05-30 12:50:00,88.7,64.0,30.11,NW,323,2.0,5.0,44,0.00,,---,0.00,VWS V14.01,2013-05-30 16:50:00,
2013-05-30 12:55:00,89.0,64.9,30.11,SW,229,1.0,5.0,45,0.00,,---,0.00,VWS V14.01,2013-05-30 16:55:00,
2013-05-30 13:00:00,90.1,65.9,30.11,NW,323,0.0,5.0,45,0.00,,---,0.00,VWS V14.01,2013-05-30 17:00:00,
2013-05-30 13:05:00,90.0,63.8,30.11,NW,315,3.0,4.0,42,0.00,,---,0.00,VWS V14.01,2013-05-30 17:05:00,
2013-05-30 13:10:00,89.8,64.3,30.11,NNE,18,1.0,4.0,43,0.00,,---,0.00,VWS V14.01,2013-05-30 17:10:00,
2013-05-30 13:15:00,90.3,65.4,30.11,West,266,1.0,4.0,44,0.00,,---,0.00,VWS V14.01,2013-05-30 17:15:00,
2013-05-30 13:20:00,90.4,64.9,30.10,West,260,3.0,5.0,43,0.00,,---,0.00,VWS V14.01,2013-05-30 17:20:00,
2013-05-30 13:25:00,90.4,64.2,30.10,WSW,238,2.0,6.0,42,0.00,,---,0.00,VWS V14.01,2013-05-30 17:25:00,
2013-05-30 13:30:00,90.1,63.9,30.10,West,264,6.0,7.0,42,0.00,,---,0.00,VWS V14.01,2013-05-30 17:30:00,
2013-05-30 13:35:00,89.6,62.8,30.10,West,271,3.0,7.0,41,0.00,,---,0.00,VWS V14.01,2013-05-30 17:35:00,
2013-05-30 13:40:00,90.0,62.5,30.10,SW,219,0.0,8.0,40,0.00,,---,0.00,VWS V14.01,2013-05-30 17:40:00,
2013-05-30 13:45:00,91.1,62.7,30.10,WSW,257,5.0,8.0,39,0.00,,---,0.00,VWS V14.01,2013-05-30 17:45:00,
2013-05-30 13:50:00,90.2,63.3,30.09,WSW,244,1.0,8.0,41,0.00,,---,0.00,VWS V14.01,2013-05-30 17:50:00,
2013-05-30 13:55:00,90.1,65.3,30.09,West,280,2.0,9.0,44,0.00,,---,0.00,VWS V14.01,2013-05-30 17:55:00,
2013-05-30 14:00:00,90.2,63.3,30.09,West,262,2.0,9.0,41,0.00,,---,0.00,VWS V14.01,2013-05-30 18:00:00,
2013-05-30 14:05:00,91.1,64.8,30.09,SSE,160,1.0,2.0,42,0.00,,---,0.00,VWS V14.01,2013-05-30 18:05:00,
2013-05-30 14:10:00,90.9,62.5,30.09,WNW,293,1.0,6.0,39,0.00,,---,0.00,VWS V14.01,2013-05-30 18:10:00,
2013-05-30 14:15:00,91.2,64.9,30.09,NE,37,1.0,6.0,42,0.00,,---,0.00,VWS V14.01,2013-05-30 18:15:00,
2013-05-30 14:20:00,92.4,66.0,30.09,West,263,3.0,6.0,42,0.00,,---,0.00,VWS V14.01,2013-05-30 18:20:00,
2013-05-30 14:25:00,92.4,66.0,30.09,West,264,2.0,6.0,42,0.00,,---,0.00,VWS V14.01,2013-05-30 18:25:00,
2013-05-30 14:30:00,91.9,64.2,30.09,WSW,257,2.0,6.0,40,0.00,,---,0.00,VWS V14.01,2013-05-30 18:30:00,
2013-05-30 14:35:00,92.2,63.7,30.09,West,281,4.0,7.0,39,0.00,,---,0.00,VWS V14.01,2013-05-30 18:35:00,
2013-05-30 14:40:00,91.0,61.9,30.09,WNW,288,1.0,7.0,38,0.00,,---,0.00,VWS V14.01,2013-05-30 18:40:00,
2013-05-30 14:45:00,91.1,64.1,30.08,NW,326,0.0,7.0,41,0.00,,---,0.00,VWS V14.01,2013-05-30 18:45:00,
2013-05-30 14:50:00,91.8,63.3,30.09,South,180,1.0,7.0,39,0.00,,---,0.00,VWS V14.01,2013-05-30 18:50:00,
2013-05-30 14:55:00,91.5,63.1,30.08,WNW,294,0.0,7.0,39,0.00,,---,0.00,VWS V14.01,2013-05-30 18:55:00,
2013-05-30 15:00:00,91.2,62.1,30.08,West,274,2.0,7.0,38,0.00,,---,0.00,VWS V14.01,2013-05-30 19:00:00,
2013-05-30 15:05:00,91.2,63.5,30.08,WSW,245,2.0,4.0,40,0.00,,---,0.00,VWS V14.01,2013-05-30 19:05:00,
2013-05-30 15:10:00,91.9,65.6,30.08,SW,225,1.0,4.0,42,0.00,,---,0.00,VWS V14.01,2013-05-30 19:10:00,
2013-05-30 15:15:00,91.7,63.2,30.08,WSW,244,2.0,8.0,39,0.00,,---,0.00,VWS V14.01,2013-05-30 19:15:00,
2013-05-30 15:20:00,91.2,63.5,30.08,West,260,3.0,8.0,40,0.00,,---,0.00,VWS V14.01,2013-05-30 19:20:00,
2013-05-30 15:25:00,90.8,65.2,30.08,West,260,2.0,8.0,43,0.00,,---,0.00,VWS V14.01,2013-05-30 19:25:00,
2013-05-30 15:30:00,91.2,64.9,30.07,WNW,291,0.0,8.0,42,0.00,,---,0.00,VWS V14.01,2013-05-30 19:30:00,
2013-05-30 15:35:00,91.6,66.0,30.07,SSW,207,1.0,5.0,43,0.00,,---,0.00,VWS V14.01,2013-05-30 19:35:00,
2013-05-30 15:40:00,91.7,66.1,30.07,WNW,285,3.0,8.0,43,0.00,,---,0.00,VWS V14.01,2013-05-30 19:40:00,
2013-05-30 15:45:00,91.4,65.8,30.07,WSW,257,1.0,8.0,43,0.00,,---,0.00,VWS V14.01,2013-05-30 19:45:00,
2013-05-30 15:50:00,91.3,65.0,30.06,West,280,3.0,8.0,42,0.00,,---,0.00,VWS V14.01,2013-05-30 19:50:00,
2013-05-30 15:55:00,91.2,64.2,30.06,West,274,5.0,8.0,41,0.00,,---,0.00,VWS V14.01,2013-05-30 19:55:00,
2013-05-30 16:00:00,91.3,64.3,30.06,SW,231,0.0,8.0,41,0.00,,---,0.00,VWS V14.01,2013-05-30 20:00:00,
2013-05-30 16:05:00,91.3,64.3,30.06,West,269,3.0,5.0,41,0.00,,---,0.00,VWS V14.01,2013-05-30 20:05:00,
2013-05-30 16:10:00,91.3,64.3,30.06,WSW,248,1.0,6.0,41,0.00,,---,0.00,VWS V14.01,2013-05-30 20:10:00,
2013-05-30 16:15:00,90.9,64.0,30.06,WNW,283,1.0,7.0,41,0.00,,---,0.00,VWS V14.01,2013-05-30 20:15:00,
2013-05-30 16:20:00,90.9,65.3,30.06,SSE,162,1.0,7.0,43,0.00,,---,0.00,VWS V14.01,2013-05-30 20:20:00,
2013-05-30 16:25:00,90.5,64.3,30.06,WSW,240,3.0,8.0,42,0.00,,---,0.00,VWS V14.01,2013-05-30 20:25:00,
2013-05-30 16:30:00,90.5,65.6,30.06,South,176,0.0,8.0,44,0.00,,---,0.00,VWS V14.01,2013-05-30 20:30:00,
2013-05-30 16:35:00,90.7,65.2,30.06,West,277,5.0,5.0,43,0.00,,---,0.00,VWS V14.01,2013-05-30 20:35:00,
2013-05-30 16:40:00,90.2,64.0,30.06,SE,131,2.0,8.0,42,0.00,,---,0.00,VWS V14.01,2013-05-30 20:40:00,
2013-05-30 16:45:00,90.1,65.3,30.06,South,170,1.0,8.0,44,0.00,,---,0.00,VWS V14.01,2013-05-30 20:45:00,
2013-05-30 16:50:00,90.2,64.0,30.06,West,269,2.0,8.0,42,0.00,,---,0.00,VWS V14.01,2013-05-30 20:50:00,
2013-05-30 16:55:00,90.1,64.6,30.06,NE,50,1.0,8.0,43,0.00,,---,0.00,VWS V14.01,2013-05-30 20:55:00,
2013-05-30 17:00:00,89.9,65.1,30.06,SE,136,1.0,8.0,44,0.00,,---,0.00,VWS V14.01,2013-05-30 21:00:00,
2013-05-30 17:05:00,89.9,64.4,30.06,West,271,2.0,6.0,43,0.00,,---,0.00,VWS V14.01,2013-05-30 21:05:00,
2013-05-30 17:10:00,89.9,64.4,30.06,West,281,4.0,6.0,43,0.00,,---,0.00,VWS V14.01,2013-05-30 21:10:00,
2013-05-30 17:15:00,89.8,63.7,30.06,West,280,4.0,8.0,42,0.00,,---,0.00,VWS V14.01,2013-05-30 21:15:00,
2013-05-30 17:20:00,89.7,64.2,30.06,NNW,347,1.0,8.0,43,0.00,,---,0.00,VWS V14.01,2013-05-30 21:20:00,
2013-05-30 17:25:00,89.6,63.5,30.06,West,266,3.0,9.0,42,0.00,,---,0.00,VWS V14.01,2013-05-30 21:25:00,
2013-05-30 17:30:00,89.6,63.5,30.06,NW,311,4.0,9.0,42,0.00,,---,0.00,VWS V14.01,2013-05-30 21:30:00,
2013-05-30 17:35:00,89.7,63.6,30.06,West,281,1.0,5.0,42,0.00,,---,0.00,VWS V14.01,2013-05-30 21:35:00,
2013-05-30 17:40:00,89.7,64.2,30.06,WNW,288,2.0,7.0,43,0.00,,---,0.00,VWS V14.01,2013-05-30 21:40:00,
2013-05-30 17:45:00,89.7,63.6,30.06,WNW,285,6.0,7.0,42,0.00,,---,0.00,VWS V14.01,2013-05-30 21:45:00,
2013-05-30 17:50:00,89.6,64.2,30.05,West,270,3.0,7.0,43,0.00,,---,0.00,VWS V14.01,2013-05-30 21:50:00,
2013-05-30 17:55:00,89.5,63.4,30.05,West,281,2.0,9.0,42,0.00,,---,0.00,VWS V14.01,2013-05-30 21:55:00,
2013-05-30 18:00:00,89.4,63.3,30.05,WSW,252,5.0,9.0,42,0.00,,---,0.00,VWS V14.01,2013-05-30 22:00:00,
2013-05-30 18:05:00,89.3,63.2,30.05,West,269,1.0,8.0,42,0.00,,---,0.00,VWS V14.01,2013-05-30 22:05:00,
2013-05-30 18:10:00,89.4,64.6,30.05,West,267,0.0,8.0,44,0.00,,---,0.00,VWS V14.01,2013-05-30 22:10:00,
2013-05-30 18:15:00,89.2,63.8,30.05,West,273,5.0,8.0,43,0.00,,---,0.00,VWS V14.01,2013-05-30 22:15:00,
2013-05-30 18:20:00,89.2,63.1,30.05,West,266,1.0,8.0,42,0.00,,---,0.00,VWS V14.01,2013-05-30 22:20:00,
2013-05-30 18:25:00,89.1,63.0,30.05,WSW,252,1.0,8.0,42,0.00,,---,0.00,VWS V14.01,2013-05-30 22:25:00,
2013-05-30 18:30:00,89.0,63.0,30.05,West,271,4.0,8.0,42,0.00,,---,0.00,VWS V14.01,2013-05-30 22:30:00,
2013-05-30 18:35:00,88.8,63.4,30.05,West,279,0.0,3.0,43,0.00,,---,0.00,VWS V14.01,2013-05-30 22:35:00,
2013-05-30 18:40:00,88.3,63.7,30.05,WNW,285,1.0,3.0,44,0.00,,---,0.00,VWS V14.01,2013-05-30 22:40:00,
2013-05-30 18:45:00,88.0,65.9,30.05,West,271,0.0,3.0,48,0.00,,---,0.00,VWS V14.01,2013-05-30 22:45:00,
2013-05-30 18:50:00,87.6,63.7,30.05,West,276,3.0,3.0,45,0.00,,---,0.00,VWS V14.01,2013-05-30 22:50:00,
2013-05-30 18:55:00,87.7,64.4,30.05,West,269,1.0,4.0,46,0.00,,---,0.00,VWS V14.01,2013-05-30 22:55:00,
2013-05-30 19:00:00,87.3,67.0,30.05,West,280,0.0,4.0,51,0.00,,---,0.00,VWS V14.01,2013-05-30 23:00:00,
2013-05-30 19:05:00,86.9,67.7,30.05,West,280,0.0,0.0,53,0.00,,---,0.00,VWS V14.01,2013-05-30 23:05:00,
2013-05-30 19:10:00,86.4,67.8,30.05,West,280,0.0,0.0,54,0.00,,---,0.00,VWS V14.01,2013-05-30 23:10:00,
2013-05-30 19:15:00,86.1,68.6,30.05,West,280,0.0,0.0,56,0.00,,---,0.00,VWS V14.01,2013-05-30 23:15:00,
2013-05-30 19:20:00,86.0,69.0,30.05,West,279,0.0,0.0,57,0.00,,---,0.00,VWS V14.01,2013-05-30 23:20:00,
2013-05-30 19:25:00,86.3,69.3,30.05,West,280,0.0,0.0,57,0.00,,---,0.00,VWS V14.01,2013-05-30 23:25:00,
2013-05-30 19:30:00,86.0,69.5,30.05,West,280,0.0,0.0,58,0.00,,---,0.00,VWS V14.01,2013-05-30 23:30:00,
2013-05-30 19:35:00,84.9,69.5,30.06,West,280,0.0,0.0,60,0.00,,---,0.00,VWS V14.01,2013-05-30 23:35:00,
2013-05-30 19:40:00,83.5,69.1,30.06,West,280,0.0,0.0,62,0.00,,---,0.00,VWS V14.01,2013-05-30 23:40:00,
2013-05-30 19:45:00,82.8,69.4,30.06,West,280,0.0,0.0,64,0.00,,---,0.00,VWS V14.01,2013-05-30 23:45:00,
2013-05-30 19:50:00,81.9,69.4,30.06,West,279,0.0,0.0,66,0.00,,---,0.00,VWS V14.01,2013-05-30 23:50:00,
2013-05-30 19:55:00,81.1,69.6,30.07,West,280,0.0,0.0,68,0.00,,---,0.00,VWS V14.01,2013-05-30 23:55:00,
2013-05-30 20:00:00,80.3,69.2,30.07,West,279,0.0,0.0,69,0.00,,---,0.00,VWS V14.01,2013-05-31 00:00:00,
2013-05-30 20:05:00,79.6,69.0,30.07,West,279,0.0,0.0,70,0.00,,---,0.00,VWS V14.01,2013-05-31 00:05:00,
2013-05-30 20:10:00,78.8,68.6,30.07,West,280,0.0,0.0,71,0.00,,---,0.00,VWS V14.01,2013-05-31 00:10:00,
2013-05-30 20:15:00,78.2,68.8,30.07,West,280,0.0,0.0,73,0.00,,---,0.00,VWS V14.01,2013-05-31 00:15:00,
2013-05-30 20:19:00,77.6,68.7,30.07,West,280,0.0,0.0,74,0.00,,---,0.00,VWS V14.01,2013-05-31 00:19:00,
2013-05-30 20:25:00,77.0,68.5,30.07,West,280,0.0,0.0,75,0.00,,---,0.00,VWS V14.01,2013-05-31 00:25:00,
2013-05-30 20:30:00,76.6,68.5,30.07,West,279,0.0,0.0,76,0.00,,---,0.00,VWS V14.01,2013-05-31 00:30:00,
2013-05-30 20:34:00,76.1,68.0,30.07,West,280,0.0,0.0,76,0.00,,---,0.00,VWS V14.01,2013-05-31 00:34:00,
2013-05-30 20:39:00,75.7,68.0,30.07,West,280,0.0,0.0,77,0.00,,---,0.00,VWS V14.01,2013-05-31 00:39:00,
2013-05-30 20:44:00,75.3,68.0,30.07,West,280,0.0,0.0,78,0.00,,---,0.00,VWS V14.01,2013-05-31 00:44:00,
2013-05-30 20:49:00,74.9,67.9,30.07,West,279,0.0,0.0,79,0.00,,---,0.00,VWS V14.01,2013-05-31 00:49:00,
2013-05-30 20:54:00,74.4,67.1,30.07,West,279,0.0,0.0,78,0.00,,---,0.00,VWS V14.01,2013-05-31 00:54:00,
2013-05-30 20:59:00,74.1,67.5,30.07,West,280,0.0,0.0,80,0.00,,---,0.00,VWS V14.01,2013-05-31 00:59:00,
2013-05-30 21:04:00,73.8,67.2,30.07,West,280,0.0,0.0,80,0.00,,---,0.00,VWS V14.01,2013-05-31 01:04:00,
2013-05-30 21:09:00,73.5,66.6,30.07,West,280,0.0,0.0,79,0.00,,---,0.00,VWS V14.01,2013-05-31 01:09:00,
2013-05-30 21:14:00,73.2,67.0,30.07,West,280,0.0,0.0,81,0.00,,---,0.00,VWS V14.01,2013-05-31 01:14:00,
2013-05-30 21:19:00,73.0,67.2,30.07,West,280,0.0,0.0,82,0.00,,---,0.00,VWS V14.01,2013-05-31 01:19:00,
2013-05-30 21:24:00,72.7,66.9,30.07,West,280,0.0,0.0,82,0.00,,---,0.00,VWS V14.01,2013-05-31 01:24:00,
2013-05-30 21:29:00,72.4,66.2,30.08,West,279,0.0,0.0,81,0.00,,---,0.00,VWS V14.01,2013-05-31 01:29:00,
2013-05-30 21:34:00,72.2,66.4,30.08,West,279,0.0,0.0,82,0.00,,---,0.00,VWS V14.01,2013-05-31 01:34:00,
2013-05-30 21:39:00,72.0,65.9,30.08,West,280,0.0,0.0,81,0.00,,---,0.00,VWS V14.01,2013-05-31 01:39:00,
2013-05-30 21:44:00,71.8,66.0,30.08,West,280,0.0,0.0,82,0.00,,---,0.00,VWS V14.01,2013-05-31 01:44:00,
2013-05-30 21:49:00,71.6,65.8,30.08,West,279,0.0,0.0,82,0.00,,---,0.00,VWS V14.01,2013-05-31 01:49:00,
2013-05-30 21:54:00,71.5,65.7,30.08,West,280,0.0,0.0,82,0.00,,---,0.00,VWS V14.01,2013-05-31 01:54:00,
2013-05-30 21:59:00,71.3,65.5,30.08,West,280,0.0,0.0,82,0.00,,---,0.00,VWS V14.01,2013-05-31 01:59:00,
2013-05-30 22:04:00,71.1,65.3,30.08,West,280,0.0,0.0,82,0.00,,---,0.00,VWS V14.01,2013-05-31 02:04:00,
2013-05-30 22:09:00,70.9,65.5,30.08,West,280,0.0,0.0,83,0.00,,---,0.00,VWS V14.01,2013-05-31 02:09:00,
2013-05-30 22:14:00,70.9,66.2,30.09,West,279,0.0,0.0,85,0.00,,---,0.00,VWS V14.01,2013-05-31 02:14:00,
2013-05-30 22:19:00,70.6,65.9,30.09,West,280,0.0,0.0,85,0.00,,---,0.00,VWS V14.01,2013-05-31 02:19:00,
2013-05-30 22:24:00,70.5,66.1,30.09,West,280,0.0,0.0,86,0.00,,---,0.00,VWS V14.01,2013-05-31 02:24:00,
2013-05-30 22:29:00,70.3,65.9,30.09,West,280,0.0,0.0,86,0.00,,---,0.00,VWS V14.01,2013-05-31 02:29:00,
2013-05-30 22:34:00,70.0,65.6,30.09,West,280,0.0,0.0,86,0.00,,---,0.00,VWS V14.01,2013-05-31 02:34:00,
2013-05-30 22:39:00,69.9,65.5,30.09,West,280,0.0,0.0,86,0.00,,---,0.00,VWS V14.01,2013-05-31 02:39:00,
2013-05-30 22:44:00,69.7,65.7,30.09,West,280,0.0,0.0,87,0.00,,---,0.00,VWS V14.01,2013-05-31 02:44:00,
2013-05-30 22:49:00,69.6,65.6,30.09,West,280,0.0,0.0,87,0.00,,---,0.00,VWS V14.01,2013-05-31 02:49:00,
2013-05-30 22:54:00,69.5,65.5,30.09,West,280,0.0,0.0,87,0.00,,---,0.00,VWS V14.01,2013-05-31 02:54:00,
2013-05-30 22:59:00,69.4,65.4,30.09,West,280,0.0,0.0,87,0.00,,---,0.00,VWS V14.01,2013-05-31 02:59:00,
2013-05-30 23:04:00,69.2,65.2,30.09,West,280,0.0,0.0,87,0.00,,---,0.00,VWS V14.01,2013-05-31 03:04:00,
2013-05-30 23:09:00,69.1,65.1,30.09,West,280,0.0,0.0,87,0.00,,---,0.00,VWS V14.01,2013-05-31 03:09:00,
2013-05-30 23:14:00,69.0,65.0,30.09,West,280,0.0,0.0,87,0.00,,---,0.00,VWS V14.01,2013-05-31 03:14:00,
2013-05-30 23:19:00,68.9,64.9,30.09,West,280,0.0,0.0,87,0.00,,---,0.00,VWS V14.01,2013-05-31 03:19:00,
2013-05-30 23:24:00,68.8,64.8,30.09,West,280,0.0,0.0,87,0.00,,---,0.00,VWS V14.01,2013-05-31 03:24:00,
2013-05-30 23:29:00,68.8,65.1,30.09,West,280,0.0,0.0,88,0.00,,---,0.00,VWS V14.01,2013-05-31 03:29:00,
2013-05-30 23:34:00,68.8,65.1,30.09,West,280,0.0,0.0,88,0.00,,---,0.00,VWS V14.01,2013-05-31 03:34:00,
2013-05-30 23:39:00,68.6,64.9,30.10,West,280,0.0,0.0,88,0.00,,---,0.00,VWS V14.01,2013-05-31 03:39:00,
2013-05-30 23:44:00,68.6,64.9,30.10,West,280,0.0,1.0,88,0.00,,---,0.00,VWS V14.01,2013-05-31 03:44:00,
2013-05-30 23:49:00,68.3,64.6,30.10,West,280,0.0,1.0,88,0.00,,---,0.00,VWS V14.01,2013-05-31 03:49:00,
2013-05-30 23:54:00,68.3,64.6,30.09,West,280,0.0,1.0,88,0.00,,---,0.00,VWS V14.01,2013-05-31 03:54:00,
2013-05-30 23:59:00,68.4,65.0,30.10,West,280,0.0,1.0,89,0.00,,---,0.00,VWS V14.01,2013-05-31 03:59:00,